User: anonymous   Login
Location: Unspecified
(0.0000°N, 0.0000°E)
Time: 23:14:28
(UTC+01:00)
Language:

Cosmos 2237 Rocket - Orbit

View from above orbital plane
View from above orbital plane
View from above satellite
View from above satellite

Ground track
Ground track

The orbit data is extracted from the following two-line orbital elements,

1 22566U 93016B   15027.52080926  .00000355  00000-0  20840-3 0  2608
2 22566 071.0082 096.5102 0010067 007.3964 352.7305 14.14879216127971
Epoch (UTC): 27 January 2015 12:29:57
Eccentricity: 0.0010067
inclination: 71.0082°
perigee height: 835 km
apogee height: 850 km
right ascension of ascending node: 96.5102°
argument of perigee: 7.3964°
revolutions per day: 14.14879216
mean anomaly at epoch: 352.7305°
orbit number at epoch: 12797

The dashed part of the orbit path shows where the satellite is in the earth's shadow,  

DLR